Starlink 11258

operational
NORAD ID: 62598 Int'l Des: 2025-008 Owner: SPXS Country: US Constellation: starlink
LEOCIRCULAR

About Starlink 11258

Description loading...

Live Position

Loading 3D Globe...

Upcoming Passes

Altitude History

Altitude vs Time

uPlot chart will show altitude changes over time

Two-Line Element Set

1 62598U 25008M 25259.27090248 .00225119 00000-0 17059-2 0 9994
2 62598 43.0002 97.4169 0001898 282.3443 77.7213 15.70908668 39851
Epoch: Sep 16, 2025 • Age: 37 hours

Current Status

Altitude 357.6 km
Velocity 7.70 km/s
Sub-Earth Point 39.69°N, 137.69°W
Launch Date Jan 13, 2025
Age 0.6 years
Type internet

Technical Details

Classification Payload
Mass 960.00 kg
Dry Mass 910.00 kg
Total Mass 960.00 kg
Length 0.30 m
Diameter 4.10 m
Span 29.00 m
Shape Box + pan
Manufacturer SPXS
Bus Type Starlink V2MD
Phase Status In Orbit
Owner/State SPXS/US

Large Constellations

Loading constellations...